This demonstration page uses our WeatherBlox Daily Observations layout. Learn more.

40.92945, -100.16068

Hourly Observations for October 15, 2019

Temp ( °F °C ) Dew Point ( °F °C ) Humidity (%) Winds ( mph kmh ) Pressure ( in mb ) Visibility ( mi km ) Precip ( " mm )
12:15 am 00:15 Clear 51 10.5 34 1 52 52 N 10 17 29.87 1011 10 16.0934 0 0
12:35 am 00:35 Hazy 53 11.8 33 0.8 47 47 N 10 17 29.86 1011 4 6.43736 0 0
12:55 am 00:55 Clear 52 11.1 34 1 50 50 NW 10 17 29.89 1012 10 16.0934 0 0
1:15 am 01:15 Clear 52 11.1 33 0.8 49 49 NNW 12 19 29.9 1013 10 16.0934 0 0
1:35 am 01:35 Clear 51 10.6 33 0.7 51 51 NNW 13 20 29.92 1013 10 16.0934 0 0
1:55 am 01:55 Clear 50 10 33 0.8 53 53 NNW 10 17 29.93 1014 10 16.0934 0 0
2:15 am 02:15 Clear 49 9.6 33 0.8 55 55 NNW 12 19 29.94 1014 10 16.0934 0 0
2:35 am 02:35 Clear 49 9.5 34 0.9 55 55 NNW 9 15 29.97 1015 10 16.0934 0 0
2:55 am 02:55 Clear 48 9 34 1 58 58 NNW 8 13 29.97 1015 10 16.0934 0 0
3:15 am 03:15 Clear 49 9.4 34 1 56 56 NNW 9 15 29.98 1015 10 16.0934 0 0
3:35 am 03:35 Clear 48 8.7 34 1 59 59 NNW 9 15 29.99 1016 10 16.0934 0 0
3:55 am 03:55 Clear 48 8.9 34 1 58 58 NNW 12 19 30 1016 10 16.0934 0 0
4:15 am 04:15 Clear 47 8.6 34 1.1 60 60 NNW 9 15 30.01 1016 10 16.0934 0 0
4:35 am 04:35 Clear 48 8.7 34 1.1 59 59 NNW 10 17 30.02 1017 10 16.0934 0 0
4:55 am 04:55 Clear 47 8.5 34 1.2 60 60 NNW 13 20 30.05 1017 10 16.0934 0 0
5:15 am 05:15 Clear 47 8.6 34 1.2 60 60 NNW 14 22 30.05 1018 10 16.0934 0 0
5:35 am 05:35 Clear 47 8.2 34 1.1 61 61 N 16 26 30.07 1018 10 16.0934 0 0
5:55 am 05:55 Clear 46 7.8 34 1.1 63 63 NNW 12 19 30.08 1019 10 16.0934 0 0
6:15 am 06:15 Clear 46 7.5 34 1.3 65 65 NW 9 15 30.09 1019 10 16.0934 0 0
6:35 am 06:35 Clear 44 6.6 34 1 68 68 NW 9 15 30.11 1020 10 16.0934 0 0
6:55 am 06:55 Clear 44 6.4 33 0.7 67 67 NW 12 19 30.13 1020 10 16.0934 0 0
7:15 am 07:15 Clear 44 6.5 33 0.5 66 66 NNW 12 19 30.14 1021 10 16.0934 0 0
7:35 am 07:35 Clear 43 6 32 0.2 67 67 NNW 13 20 30.15 1021 10 16.0934 0 0
7:55 am 07:55 Sunny 42 5.7 32 0.1 68 68 NNW 12 19 30.15 1021 10 16.0934 0 0
8:15 am 08:15 Sunny 42 5.6 32 0.1 68 68 NNW 12 19 30.16 1021 10 16.0934 0 0
8:35 am 08:35 Sunny 42 5.8 32 0.1 67 67 NNW 10 17 30.17 1022 10 16.0934 0 0
8:55 am 08:55 Sunny 43 6.1 32 0 65 65 N 14 22 30.18 1022 10 16.0934 0 0
9:15 am 09:15 Sunny 44 6.7 32 0 63 63 NNW 14 22 30.18 1022 10 16.0934 0 0
9:35 am 09:35 Sunny 46 7.5 32 0 59 59 N 12 19 30.17 1022 10 16.0934 0 0
9:55 am 09:55 Sunny 47 8.2 32 -0.1 56 56 N 17 28 30.18 1022 10 16.0934 0 0
10:15 am 10:15 Sunny 48 9 32 0 54 54 NNW 16 26 30.18 1022 10 16.0934 0 0
10:35 am 10:35 Sunny 49 9.7 32 0 51 51 NNW 20 31 30.17 1022 10 16.0934 0 0
10:55 am 10:55 Sunny 51 10.5 31 -0.7 46 46 N 23 37 30.17 1022 10 16.0934 0 0
11:15 am 11:15 Sunny 51 10.8 30 -0.9 45 45 NNW 22 35 30.16 1021 10 16.0934 0 0
11:35 am 11:35 Sunny 53 11.4 30 -0.9 43 43 N 22 35 30.16 1021 10 16.0934 0 0
11:55 am 11:55 Sunny 53 11.9 30 -0.9 41 41 NNW 22 35 30.16 1021 10 16.0934 0 0
12:15 pm 12:15 Sunny 54 12.2 32 -0.2 43 43 NNW 18 30 30.16 1021 10 16.0934 0 0
12:35 pm 12:35 Sunny 55 12.6 32 -0.1 42 42 NNW 15 24 30.15 1021 10 16.0934 0 0
12:55 pm 12:55 Sunny 55 13 30 -0.9 39 39 NW 22 35 30.14 1021 10 16.0934 0 0
1:15 pm 13:15 Sunny 56 13.2 30 -1.2 37 37 NNW 22 35 30.14 1021 10 16.0934 0 0
1:35 pm 13:35 Sunny 56 13.5 28 -2.1 34 34 NW 21 33 30.14 1021 10 16.0934 0 0
1:55 pm 13:55 Sunny 56 13.6 28 -2.5 33 33 NNW 22 35 30.13 1020 10 16.0934 0 0
2:15 pm 14:15 Sunny 57 13.9 28 -2.4 33 33 NNW 23 37 30.13 1020 10 16.0934 0 0
2:35 pm 14:35 Sunny 58 14.3 28 -2.1 32 32 NW 24 39 30.11 1020 10 16.0934 0 0
2:55 pm 14:55 Sunny 59 14.9 28 -2.3 31 31 NNW 20 31 30.1 1019 10 16.0934 0 0
3:15 pm 15:15 Sunny 58 14.6 27 -2.8 30 30 NW 23 37 30.1 1019 10 16.0934 0 0
3:35 pm 15:35 Sunny 58 14.6 27 -2.9 30 30 NNW 26 43 30.1 1019 10 16.0934 0 0
3:55 pm 15:55 Sunny 58 14.7 27 -2.9 30 30 NNW 22 35 30.1 1019 10 16.0934 0 0
4:15 pm 16:15 Sunny 58 14.5 27 -2.6 31 31 NNW 22 35 30.11 1020 10 16.0934 0 0
4:35 pm 16:35 Sunny 58 14.6 27 -2.7 30 30 NNW 16 26 30.11 1020 10 16.0934 0 0
4:55 pm 16:55 Sunny 58 14.3 26 -3.2 30 30 NNW 18 30 30.11 1020 10 16.0934 0 0
5:15 pm 17:15 Sunny 58 14.3 26 -3.6 29 29 NNW 17 28 30.11 1020 10 16.0934 0 0
5:35 pm 17:35 Sunny 57 13.8 27 -3 31 31 N 20 31 30.13 1020 10 16.0934 0 0
5:55 pm 17:55 Sunny 56 13.3 26 -3.1 32 32 N 20 31 30.14 1021 10 16.0934 0 0
6:15 pm 18:15 Sunny 54 12.4 27 -2.6 35 35 N 16 26 30.15 1021 10 16.0934 0 0
6:35 pm 18:35 Sunny 53 11.4 27 -2.7 38 38 N 17 28 30.17 1022 7 11.26538 0 0
6:55 pm 18:55 Sunny 50 10.2 28 -2.5 41 41 N 15 24 30.2 1023 10 16.0934 0 0
7:15 pm 19:15 Hazy 49 9.3 28 -2.5 44 44 N 10 17 30.21 1023 5 8.0467 0 0
7:35 pm 19:35 Clear 47 8.4 28 -2.5 47 47 N 9 15 30.23 1024 10 16.0934 0 0
7:55 pm 19:55 Clear 45 7.2 28 -2.3 51 51 N 8 13 30.25 1024 7 11.26538 0 0
8:15 pm 20:15 Clear 44 6.4 28 -2.1 55 55 N 8 13 30.27 1025 10 16.0934 0 0
8:35 pm 20:35 Clear 41 5 28 -2.2 60 60 N 6 9 30.29 1026 10 16.0934 0 0
8:55 pm 20:55 Clear 39 3.8 28 -2.2 65 65 N 6 9 30.3 1026 7 11.26538 0 0
9:15 pm 21:15 Hazy 37 2.7 28 -2.2 70 70 N 8 13 30.32 1027 3 4.82802 0 0
9:35 pm 21:35 Clear 38 3.6 28 -2 67 67 N 7 11 30.31 1026 7 11.26538 0 0
9:55 pm 21:55 Hazy 37 2.7 28 -2.1 71 71 N 7 11 30.33 1027 4 6.43736 0 0
10:15 pm 22:15 Hazy 36 2 28 -2.1 75 75 N 6 9 30.34 1027 4 6.43736 0 0
10:35 pm 22:35 Clear 35 1.5 28 -2 78 78 NNW 5 7 30.35 1028 10 16.0934 0 0
11:15 pm 23:15 Clear 33 0.5 28 -2.4 81 81 N 5 7 30.36 1028 10 16.0934 0 0
11:35 pm 23:35 Clear 29 -1.4 25 -3.7 85 85 Calm 30.38 1029 10 16.0934 0 0
11:55 pm 23:55 Clear 32 -0.2 27 -2.6 84 84 WNW 3 6 30.37 1028 10 16.0934 0 0

Powered by AerisWeather